Location: St Andrew
(49.4460°N, 2.5750°W)
Time: 07:55:41
(UTC+00:00)

Daily predictions for brighter satellites

Satellite Brightness Start Highest point End
(mag) Time Altitude Azimuth Time Altitude Azimuth Time Altitude Azimuth
Cosmos 2208 Rocket 4.4 17:08:00 10° SSW 17:13:11 69° WNW 17:18:29 10° NNE
Ariane Rocket 4.2 17:08:24 10° S 17:13:18 50° W 17:18:15 10° NNW
Cosmos 1726 3.7 17:12:36 10° NNE 17:15:09 17° ENE 17:17:40 10° ESE
Lacrosse 5 rocket 1.8 17:12:18 10° NW 17:15:45 36° NNE 17:19:20 10° E
MTI 4.2 17:12:45 10° N 17:15:59 66° WNW 17:19:13 10° SSW
Cosmos 1378 4.1 17:12:21 10° SSW 17:16:00 51° WNW 17:19:40 10° N
CZ-4 R/B 1.3 17:17:42 10° SSE 17:21:35 83° ENE 17:25:30 10° NNW
SMAP 3.0 17:17:19 10° SSE 17:21:57 72° ENE 17:26:37 10° N
Lacrosse 5 2.0 17:17:23 10° WSW 17:22:28 78° NNW 17:27:34 10° NE
Cosmos 1766 Rocket 3.7 17:21:34 10° S 17:25:56 58° E 17:30:19 10° NNE
Cosmos 2360 Rocket 2.2 17:21:04 10° SSW 17:26:41 82° ESE 17:32:21 10° NNE
Resurs 01 Rocket 3.5 17:26:10 10° ENE 17:27:22 11° NE 17:28:35 10° NE
Cosmos 1980 Rocket 4.0 17:23:26 10° W 17:27:53 24° NW 17:32:22 10° N
CZ-2C R/B 2.5 17:23:52 10° SSE 17:28:52 89° WSW 17:33:45 10° NNW
COSMO-SKYMED 1 3.7 17:27:54 10° NE 17:31:25 23° E 17:34:55 10° SSE
Cosmos 1174 4.4 17:31:56 10° WSW 17:34:45 37° NW 17:37:49 10° NNE
Cosmos 2228 Rocket 3.1 17:31:23 10° N 17:35:46 61° ENE 17:40:08 10° SSE
YAOGAN 1 2.6 17:32:59 10° SSE 17:37:18 87° ENE 17:41:41 10° NNW
Cosmos 2333 Rocket 3.3 17:35:22 10° SSE 17:39:49 24° ESE 17:44:10 10° NE
Tsikada Rocket 4.1 17:34:47 10° S 17:41:07 73° E 17:47:33 10° NNE
ATLAS 3B R/B 4.0 17:37:26 10° W 17:43:57 32° NNW 17:50:12 10° NE
ATLAS 5 CENTAUR R/B 3.8 17:41:59 10° NW 17:45:48 19° N 17:49:53 10° NE
USA 116 3.1 17:42:31 10° NNE 17:45:54 76° ESE 17:49:01 10° S
CORIOLIS 4.3 17:40:33 10° SSE 17:45:54 81° WSW 17:51:19 10° NNW
Cosmos 1408 Rocket 3.6 17:42:29 10° S 17:46:57 87° W 17:51:24 10° N
USA 215 3.3 17:41:34 10° ESE 17:48:09 90° SSW 17:54:46 10° WNW
COSMOS 2441 4.3 17:43:50 10° SSE 17:48:42 81° ENE 17:53:35 10° NNW
Cosmos 1763 Rocket 3.6 17:43:37 10° S 17:48:43 56° ESE 17:53:46 10° NNE
CZ-4 R/B 4.5 17:47:52 10° SSE 17:52:02 85° WSW 17:56:12 10° NNW
Cosmos 372 Rocket 4.3 17:47:32 10° NNW 17:52:25 42° ENE 17:57:14 10° SE
SJ-6B 3.9 17:50:00 10° ESE 17:53:24 26° ENE 17:56:52 10° N
Cosmos 2219 Rocket 2.7 17:48:57 10° S 17:54:07 39° ESE 17:58:59 12° NE
Cosmos 2322 Rocket 3.7 17:49:30 10° WSW 17:54:35 32° NW 17:59:40 10° NNE
Cosmos 2278 Rocket 2.3 17:49:05 10° NNW 17:54:43 58° ENE 18:00:19 10° SE
NOSS 3-2 (A) 4.3 17:50:25 10° WSW 17:56:28 49° NW 18:03:13 10° NE
Cosmos 2058 4.1 17:54:44 10° SE 17:57:54 22° E 17:59:41 17° NE
Cosmos 389 Rocket 4.0 17:55:31 10° NNW 17:58:57 42° W 18:02:20 10° SSW
NOSS 3-2 (C) 4.1 17:54:06 10° WSW 18:00:13 54° NW 18:06:55 10° NE
Cosmos 1634 Rocket 3.9 17:57:39 10° N 18:03:53 75° E 18:10:03 10° SSE
CZ-4C R/B 3.9 17:59:43 10° WNW 18:04:35 24° N 18:09:13 13° NE
Cosmos 1844 3.9 17:59:54 10° NNW 18:05:40 79° WSW 18:11:27 10° SSE
Cosmos 1743 Rocket 3.5 18:04:21 10° S 18:08:49 79° E 18:13:19 10° NNE
Cosmos 540 Rocket 4.2 18:05:34 10° SSE 18:10:09 33° ESE 18:13:09 18° NE
Cosmos 1328 Rocket 4.0 18:05:48 10° NNW 18:10:12 66° W 18:14:37 10° S
Orbus 7S? 4.1 18:08:11 10° NW 18:11:25 44° NNE 18:15:15 19° E
MSX 4.4 18:06:07 10° S 18:11:45 60° WSW 18:17:27 10° NNW
Thor Agena Rocket 3.7 18:09:23 10° NNE 18:14:41 78° WNW 18:19:53 10° SSW
Cosmos 1515 Rocket 3.8 18:12:23 10° NNW 18:16:53 74° W 18:21:19 10° S
Cosmos 332 Rocket 3.7 18:12:06 10° SSW 18:16:53 69° ESE 18:21:15 13° NNE
SKYMED 2 3.5 18:15:28 10° NNE 18:19:49 68° ESE 18:24:08 10° S
COSMOS 2428 2.8 18:14:26 10° SSW 18:20:10 84° WNW 18:25:48 11° NNE
Cosmos 1125 Rocket 3.5 18:16:05 10° NNW 18:21:20 87° WSW 18:26:32 10° SSE
Cosmos 2151 3.1 18:18:07 10° S 18:22:12 50° E 18:25:46 13° NNE
Cosmos 1340 Rocket 3.7 18:19:31 10° SSE 18:22:33 27° ESE 18:22:33 27° ESE
NOAA 12 4.0 18:18:28 10° SSE 18:23:39 67° ENE 18:28:54 10° N
Cosmos 2237 Rocket 2.6 18:19:10 10° S 18:24:23 41° ESE 18:27:23 23° NE
Cosmos 2369 Rocket 3.8 18:22:06 10° N 18:25:28 16° NNE 18:25:47 16° NE
Cosmos 1151 Rocket 3.0 18:23:09 10° NNW 18:27:27 82° W 18:31:44 10° S
Cosmos 1805 Rocket 4.4 18:24:30 10° SSE 18:28:13 29° E 18:28:13 29° E
SL-16 R/B 3.5 18:25:01 10° SSE 18:28:30 21° ESE 18:28:30 21° ESE
SL-19 R/B 4.4 18:23:33 10° SE 18:29:14 52° ENE 18:34:40 10° N
CENTAUR R/B 2.6 18:25:07 10° SW 18:31:23 84° NW 18:36:51 18° NE
SL-14 R/B 3.2 18:28:22 10° S 18:32:14 62° E 18:34:56 19° NNE
NOSS 0 Rocket 4.0 18:26:31 10° S 18:32:33 56° ESE 18:36:39 21° NE
Cosmos 2297 3.8 18:27:48 10° NNW 18:33:26 57° ENE 18:38:37 12° SE
Cosmos 1674 4.2 18:32:15 10° SW 18:35:49 37° WNW 18:39:26 10° N
Cosmos 1500 Rocket 3.6 18:31:34 10° SSW 18:35:53 77° W 18:40:17 10° N
Spot 2 Rocket 3.8 18:31:58 10° SE 18:36:43 43° ENE 18:41:28 10° N
Cosmos 1484 Rocket 4.3 18:33:48 10° SSW 18:37:30 39° W 18:41:16 10° NNW
ALOS 2.5 18:33:19 10° SE 18:37:44 43° ENE 18:42:10 10° N
Transit 2A Rocket 4.4 18:35:09 10° NW 18:39:34 87° SW 18:43:13 14° SSE
Cosmos 44 3.8 18:35:07 10° S 18:40:02 43° ESE 18:41:18 36° E
Cosmos 841 Rocket 3.8 18:37:03 10° SSW 18:42:18 67° WNW 18:47:14 12° NNE
Cosmos 371 Rocket 3.2 18:42:35 10° SSW 18:47:24 87° WNW 18:50:30 22° NNE
Cosmos 1300 3.6 18:43:44 10° NNW 18:47:28 50° W 18:51:11 10° S
Meteor 1-11 4.1 18:43:50 10° S 18:49:29 73° E 18:55:14 10° NNE
Cosmos 1726 3.3 18:47:08 10° NNW 18:50:43 44° W 18:54:19 10° SSW
Lacrosse 5 rocket 1.6 18:51:23 10° WNW 18:55:07 59° SW 18:56:20 38° SSE
SL-16 R/B 4.5 18:51:37 10° WNW 18:55:15 17° NW 18:58:54 10° N
Cosmos 2279 Rocket 4.1 18:50:15 10° NNW 18:56:29 78° W 19:02:41 10° S
Resurs 01 Rocket 1.5 19:01:44 44° SE 19:03:03 70° ENE 19:07:30 10° N
BREEZE-M DEB (TANK) 4.4 18:39:47 10° W 19:03:36 89° S 19:05:55 42° E
FengYun 1-2 T 4.1 18:59:49 10° SSE 19:05:23 80° ENE 19:10:56 10° NNW
Lacrosse 5 2.8 19:01:18 10° WNW 19:06:01 37° N 19:07:09 33° NNE
Cosmos 44 Rocket 3.3 19:01:39 10° SW 19:06:47 85° NW 19:08:11 49° NNE
Lacrosse 4 Rocket 3.0 19:03:44 10° NNW 19:05:36 22° N 19:05:36 22° N
COSMO-SKYMED 1 3.7 19:03:39 10° N 19:07:45 42° WNW 19:11:51 10° SW
Cosmos 2084 3.3 19:04:49 10° SW 19:08:16 70° SW 19:08:16 70° SW
Cosmos 2360 Rocket 4.1 19:06:54 10° W 19:11:23 24° NW 19:15:54 10° NNE
Cosmos 1980 3.6 19:05:53 10° SSW 19:11:34 87° WNW 19:14:04 36° NNE
Meteor 1-28 Rocket 4.2 19:09:52 23° N 19:11:51 44° WNW 19:15:23 10° SW
Cosmos 1707 Rocket 3.4 19:07:50 10° N 19:12:12 86° WSW 19:14:53 23° S
Resurs 1-3 4.1 19:17:06 47° N 19:17:06 47° N 19:20:17 10° NNW
Cosmos 1900 4.3 19:14:29 10° NW 19:19:27 80° SW 19:20:24 58° SSE
Nadezhda 4 Rocket 3.9 19:15:32 10° S 19:21:44 70° E 19:28:02 10° NNE
FENGYUN 3A 3.6 19:17:02 10° SSE 19:22:23 82° WSW 19:27:49 10° NNW
Cosmos 2333 Rocket 2.5 19:18:01 10° SW 19:23:38 64° WNW 19:26:13 32° NNE
Aureole 2 Rocket 4.2 19:20:58 10° SSW 19:22:52 30° SSW 19:22:52 30° SSW
DNEPR-1 R/B 4.4 19:19:31 10° SW 19:26:08 74° NW 19:27:36 51° NNE
SJ-6B 4.5 19:24:12 10° SSW 19:27:57 35° W 19:31:46 10° NNW
ATLAS 5 CENTAUR R/B 3.6 19:27:43 10° NW 19:31:33 25° N 19:31:33 25° N
Cosmos 304 Rocket 4.4 19:29:04 10° SSW 19:32:24 45° SSW 19:32:24 45° SSW
Cosmos 2058 4.3 19:30:47 10° SW 19:34:38 37° WNW 19:35:59 29° NNW
ATLAS 3B R/B 4.0 19:31:01 10° NW 19:36:52 26° N 19:37:52 25° NNE
Cosmos 2219 Rocket 3.2 19:32:42 10° WSW 19:38:03 42° NW 19:40:44 26° N
Cosmos 2278 Rocket 4.2 19:33:44 10° NW 19:38:27 27° WSW 19:43:09 10° SSW
Cosmos 1092 Rocket 4.3 19:32:32 10° S 19:47:04 - NNE 19:37:19 52° SSE
Cosmos 1943 Rocket 4.2 19:47:13 10° NNW 19:48:38 16° N 19:48:38 16° N
CZ-4C R/B 3.8 19:49:29 10° NW 19:54:25 30° N 19:54:25 30° N
Cosmos 2237 Rocket 3.3 20:03:11 10° WSW 20:08:29 40° NW 20:09:15 38° NNW
Cosmos 2369 Rocket 3.8 20:05:15 10° NNW 20:07:36 24° NNW 20:07:36 24° NNW
SL-16 R/B 3.3 20:07:00 10° SW 20:10:27 38° SW 20:10:27 38° SW
ALOS 4.3 20:11:29 10° SSW 20:15:21 26° W 20:19:16 10° NW
CENTAUR R/B 3.9 20:17:08 10° W 20:23:04 34° NNW 20:24:03 33° N
Resurs 01 Rocket 4.4 20:39:16 15° W 20:40:00 15° W 20:42:36 10° NW
Lacrosse 5 4.4 20:45:09 10° WNW 20:46:21 17° NW 20:46:21 17° NW
